User: anonymous   Login
Location: Unspecified
(0.0000°N, 0.0000°E)
Time: 21:17:36
(UTC+00:00)
Language:

HODOYOSHI 1 - Orbit

View from above orbital plane
View from above orbital plane
View from above satellite
View from above satellite

Ground track
Ground track

The orbit data is extracted from the following two-line orbital elements,

1 40299U 14070B   17141.76978178 +.00000859 +00000-0 +40352-4 0  9993
2 40299 097.4028 224.9107 0013357 177.5030 297.4585 15.22203073140924
Epoch (UTC): 21 May 2017 18:28:29
Eccentricity: 0.0013357
inclination: 97.4028°
perigee height: 490 km
apogee height: 508 km
right ascension of ascending node: 224.9107°
argument of perigee: 177.5030°
revolutions per day: 15.22203073
mean anomaly at epoch: 297.4585°
orbit number at epoch: 14092

The dashed part of the orbit path shows where the satellite is in the earth's shadow,  

DLR